This is the latest recevied weather packets stored in our database for station/object WC4PEM-14. If no packets are shown the sender has not sent any weather packets the latest 10 day(s).
| Time | Temp. | Humidity | Pressure | Rain* | Wind** | Luminosity | Snow |
|---|---|---|---|---|---|---|---|
| 1777834992 | 27.22° C | 55% | 1016.3 hPa | 0 mm | - | - | - |
| 1777834916 | 27.78° C | 55% | 1016.2 hPa | 0 mm | - | - | - |
| 1777834691 | 27.78° C | 55% | 1016.2 hPa | 0 mm | - | - | - |
| 1777834391 | 27.22° C | 55% | 1016.4 hPa | 0 mm | - | - | - |
| 1777834092 | 26.67° C | 57% | 1016.5 hPa | 0 mm | - | - | - |
| 1777833792 | 26.67° C | 57% | 1016.5 hPa | 0 mm | - | - | - |
| 1777833697 | 26.67° C | 57% | 1016.5 hPa | 0 mm | - | - | - |
| 1777833492 | 26.67° C | 57% | 1016.5 hPa | 0 mm | - | - | - |
| 1777833452 | 26.67° C | 57% | 1016.6 hPa | 0 mm | - | - | - |
| 1777833192 | 26.67° C | 57% | 1016.6 hPa | 0 mm | - | - | - |
| 1777832892 | 26.67° C | 57% | 1016.7 hPa | 0 mm | - | - | - |
| 1777832796 | 26.67° C | 58% | 1016.8 hPa | 0 mm | - | - | - |
| 1777832592 | 26.67° C | 58% | 1016.8 hPa | 0 mm | - | - | - |
| 1777832354 | 27.22° C | 57% | 1016.8 hPa | 0 mm | - | - | - |
| 1777832292 | 27.22° C | 57% | 1016.8 hPa | 0 mm | - | - | - |
| 1777832032 | 26.67° C | 58% | 1016.9 hPa | 0 mm | - | - | - |
| 1777831992 | 26.67° C | 58% | 1016.9 hPa | 0 mm | - | - | - |
| 1777831692 | 26.11° C | 62% | 1016.9 hPa | 0 mm | - | - | - |
| 1777831454 | 25.56° C | 62% | 1017 hPa | 0 mm | - | - | - |
| 1777831392 | 25.56° C | 62% | 1017 hPa | 0 mm | - | - | - |
| 1777831092 | 25.56° C | 62% | 1017.2 hPa | 0 mm | - | - | - |
| 1777830878 | 25° C | 62% | 1017.1 hPa | 0 mm | - | - | - |
| 1777830792 | 25° C | 62% | 1017.1 hPa | 0 mm | - | - | - |
| 1777830492 | 25° C | 61% | 1017.2 hPa | 0 mm | - | - | - |
| 1777830390 | 25° C | 63% | 1017.1 hPa | 0 mm | - | - | - |
* Rain latest hour (hover to see other rain measurements)
** Current wind speed in m/s (hover to see current wind gust speed)